Regional Weather Roundup
Issued by NWS Northern Indiana

Home | Current Version | Previous Version | Text Only | Print | Product List | Glossary On
Versions: 1 2 3 4 5 6 7 8 9 10 11 12 13 14 15 16 17 18 19 20 21 22 23 24 25 26 27 28 29 30 31 32 33 34 35 36 37 38 39 40 41 42 43 44 45 46 47 48 49 50
000
ASUS43 KIWX 281310
RWRIWX

KIWX WEATHER ROUNDUP
NATIONAL WEATHER SERVICE NORTHERN INDIANA
900 AM EDT FRI AUG 28 2015

NOTE: "FAIR" INDICATES FEW OR NO CLOUDS BELOW 12,000 FEET WITH NO
SIGNIFICANT WEATHER AND/OR OBSTRUCTIONS TO VISIBILITY.

* THESE STATIONS ARE NOT UNDER NWS QUALITY CONTROL. THEY ALSO MAY NOT
  REPORT WEATHER SUCH AS PRECIPITATION OR FOG.

INZ001>027-281400-
NORTHERN INDIANA

CITY           SKY/WX    TMP DP  RH WIND       PRES   REMARKS
GARY*          MOSUNNY   63  57  82 SE5       30.16R
VALPARAISO     SUNNY     60  57  89 CALM      30.17R
MICHIGAN CITY* SUNNY     61  59  94 S3        30.17R
LAPORTE*       SUNNY    N/A N/A N/A CALM      30.18R HAZE
KNOX*          SUNNY     59  59 100 S3        30.16R
SOUTH BEND     SUNNY     60  56  86 SE6       30.17S
ELKHART*       SUNNY     59  57  94 SE5       30.18R
GOSHEN         SUNNY     60  57  89 SE7       30.18R
MONTICELLO*    SUNNY     60  59  94 CALM      30.16S
LOGANSPORT*    SUNNY     59  55  88 SE5       30.18S
ROCHESTER*     SUNNY     64  59  82 S5        30.18R
WARSAW*        SUNNY     59  55  88 CALM      30.19R
ANGOLA*        MOSUNNY   59  55  88 SE5       30.20R
FORT WAYNE     MOSUNNY   59  56  89 SE3       30.20R FOG
HUNTINGTON*    SUNNY     60  55  82 CALM      30.19S
PERU/GRISSOM   SUNNY     61  57  86 S3        30.17S
MARION*        SUNNY     59  51  75 S3        30.19S

$$
INZ028>050-281400-
CENTRAL INDIANA

CITY           SKY/WX    TMP DP  RH WIND       PRES   REMARKS
LAFAYETTE      SUNNY     62  58  86 CALM      30.16S
KOKOMO*        MOSUNNY   61  55  82 S6        30.18S
MUNCIE*        SUNNY     62  57  83 S5        30.19S
INDIANAPOLIS   MOSUNNY   63  57  81 SE5       30.17R

$$
MIZ043>046-050>051-056>058-064>065-071>073-077>080-281400-
SOUTHWEST LOWER MICHIGAN

CITY           SKY/WX    TMP DP  RH WIND       PRES   REMARKS
BATTLE CREEK   SUNNY     60  55  83 S7        30.20R
BENTON HARBOR  SUNNY     60  56  86 SE5       30.16R
COLDWATER*     PTSUNNY   59  57  93 SE5       30.19S
HILLSDALE*     PTSUNNY   59  59  99 S5        30.21R FOG
HOLLAND        SUNNY     59  56  89 SE6       30.18R
GRAND RAPIDS   PTSUNNY   57  55  93 SE5       30.18S
KALAMAZOO      MOSUNNY   60  55  83 S3        30.19S
STURGIS*       SUNNY     59  57  94 S5        30.18S
THREE RIVERS*  FAIR      59  57  96 CALM      30.19R

$$
OHZ001>008-015>018-024>025-281400-
NORTHWEST OHIO

CITY           SKY/WX    TMP DP  RH WIND       PRES   REMARKS
WAUSEON*       FAIR      57  57 100 CALM      30.21R FOG
DEFIANCE       PTSUNNY   60  56  86 SE3       30.21R FOG
FINDLAY        SUNNY     60  56  86 SE7       30.20R
TOLEDO EXPRESS SUNNY     58  55  90 CALM      30.21R
TOLEDO METCALF SUNNY     61  56  83 S5        30.21S
LIMA           SUNNY     60  56  86 S3        30.20R

$$
AND FOR LAKE MICHIGAN COASTAL AND OPEN LAKE BUOY OBSERVATIONS

STATION/POSITION TEMP    WIND        PRES    VSBY  WAVE
                 AIR SEA DIR/SP/G                  HT/PER
                 (F)     (DEG/KT/KT) (MB)    (MI)  (FT/S)
CALUMET HARBOR    61     180/  4/  5   N/A
MICHIGAN CITY     60     130/ 11/ 13   N/A
BURNS HARBOR      62     170/  6/ 11 1021.0R
SAINT JOSEPH      61     140/  2/  6 1022.4R
SOUTH LAKE BUOY   67 67  180/ 10/ 12 1020.7R         2/ 4
4 MI NW BRIDGMAN  63 71  200/ 10/ 12   N/A           1/ 2
MICHIGAN CITY     63 70  180/ 12/ 14   N/A           1/ 2

$$
&&



USA.gov is the U.S. government's official web portal to all federal, state and local government web resources and services.